SCP
0 0 0 0 0 0 0 0 0 0 0 0 0 0 0 -0 0 0 0 -0 -0 -0 -0 -0 -0 -0 0 0 0 0 -0 -0 -0 -0 -0 -0 -0 -0 -0 -0 -0 -0 -0 -0 -0 -0 -0 -0 -0
0 0 0 0 0 0 0 0 0 0 0 0 0 0 0 0 0 0 0 -0 -0 0 0 0 -0 -0 -0 0 0 0 0 0 -0 -0 -0 -0 -0 -0 -0 -0 -0 -0 -0 -0 -0 -0 -0 -0 -0
0 0 0 0 0 0 0 0 0 0 0 0 0 0 0 0 0 0 0 -0 -0 0 0 0 0 -0 -0 -0 0 0 0 0 0 0 0 0 0 0 0 0 0 0 0 0 0 -0 0 -0 -0
0 0 0 0 0 0 -0 0 0 0 0 0 0 0 0 0 0 0 0 -0 0 0 0 0 0 0 0 0 0 0 0 0 0 0 0 0 0 0 0 0 0 -0 -0 0 0 0 -0 -0 -0
0 0 0 0 0 0 0 0 0 0 0 0 0 0 0 0 0 0 0 0 0 0 0 0 0 0 0 0 0 0 0 0 0 0 0 0 0 0 0 0 0 0 -0 0 0 0 0 -0 -0
0 0 0 0 0 0 0 0 0 0 0 0 0 0 0 0 0 0 0 0 0 0 0 0 0 0 0 0 0 0 0 0 0 0 0 0 0 0 0 0 0 -0 -0 -0 -0 -0 -0 -0 -0
0 0 0 0 0 0 0 0 0 0 0 0 0 0 0 0 0 0 0 0 0 0 0 0 0 0 0 0 0 0 0 0 0 0 0 0 0 -0 -0 -0 -0 -0 -0 -0 -0 -0 -0 -0 -0
0 0 0 0 0 0 0 0 0 0 0 0 0 0 0 0 0 0 0 0 0 0 0 0 0 0 0 0 0 0 0 0 0 0 0 0 -0 -0 -0 -0 -0 -0 -0 -0 -0 -0 -0 -0 -0
0 0 0 0 0 0 0 0 0 0 0 0 0 0 0 0 0 0 0 0 0 0 0 0 0 0 0 0 0 0 0 0 0 0 0 -0 -0 -0 -0 0 0 -0 -0 -0 -0 -0 -0 -0 0
0 0 0 0 0 0 0 0 0 0 0 0 0 0 0 0 0 0 0 0 0 0 0 0 0 0 0 0 0 0 0 0 0 0 0 0 0 0 -0 -0 0 0 0 0 0 -0 0 -0 0
0 0 0 0 0 0 0 0 0 0 0 0 0 0 0 0 0 0 0 0 0 0 0 0 0 0 0 0 0 0 0 0 0 0 0 0 0 0 0 0 0 0 0 0 0 0 0 0 0
0 0 0 0 0 0 0 0 0 0 0 0 0 0 0 0 0 0 0 0 0 0 0 0 0 0 0 0 0 0 0 0 0 0 0 0 0 0 0 0 0 0 0 0 0 0 0 0 0
0 0 0 0 0 0 0 0 0 0 0 0 0 0 0 0 0 0 0 0 0 0 0 0 0 0 0 0 0 0 0 0 0 0 0 0 0 0 0 0 0 0 0 0 0 0 0 0 0
0 0 0 0 0 0 0 0 0 0 0 0 0 0 0 0 0 0 0 0 0 0 0 0 0 0 0 0 0 0 0 0 0 0 0 0 0 0 0 0 0 0 0 0 0 0 0 0 0
0 0 0 0 0 0 0 0 0 0 0 0 0 0 0 0 0 0 0 0 0 0 0 0 0 0 0 0 0 0 0 0 0 0 0 0 0 0 0 0 0 0 0 0 0 0 0 0 0
0 0 0 0 0 0 0 0 0 0 0 0 0 0 0 0 0 0 0 0 0 0 0 0 0 0 0 0 0 0 0 0 0 0 0 0 0 0 0 0 0 0 0 0 0 0 0 0 0
0 0 0 0 0 0 0 0 0 0 0 0 0 0 0 0 0 0 0 0 0 0 0 0 0 0 0 0 0 0 0 0 0 0 0 0 0 0 0 0 0 0 0 0 0 0 0 0 0
0 0 0 0 0 0 0 0 0 0 0 0 0 0 0 0 0 0 0 0 0 0 0 0 0 0 0 0 0 0 0 0 0 0 0 0 0 0 0 0 0 0 0 0 0 0 0 0 0
0 0 0 0 0 0 0 0 0 0 0 0 0 0 0 0 0 0 0 0 0 0 0 0 0 0 0 0 0 0 0 0 0 0 0 0 0 0 0 0 0 0 0 0 0 0 0 0 0
0 0 -0 0 0 0 0 0 0 0 0 0 0 0 0 0 0 0 0 0 0 0 0 0 0 0 0 0 0 0 0 0 0 0 0 0 0 0 0 0 0 0 0 0 0 0 0 0 0
0 0 0 -0 0 0 0 0 0 0 0 0 0 0 0 0 0 0 0 0 0 0 0 0 0 0 0 0 0 0 0 0 0 0 0 0 0 0 0 0 0 0 0 0 0 0 0 0 0
0 0 0 -0 -0 0 0 0 0 0 0 0 0 0 0 0 0 0 0 0 0 0 0 0 0 0 0 0 0 0 0 0 0 0 0 0 0 0 0 0 0 0 0 0 0 0 0 0 0
0 0 0 0 -0 -0 -0 0 0 0 0 0 0 0 0 0 0 0 0 0 0 0 0 0 0 0 0 0 0 0 0 0 0 0 0 0 0 0 0 0 0 0 0 0 0 0 0 0 0
0 0 0 0 0 -0 -0 0 0 0 0 0 0 0 0 0 0 0 0 0 0 0 0 0 0 0 0 0 0 0 0 0 0 0 0 0 0 0 0 0 0 0 0 0 0 0 0 0 0
0 0 0 0 -0 -0 -0 0 0 0 0 0 0 0 0 0 0 0 0 0 0 0 0 0 0 0 0 0 0 0 0 0 0 0 0 0 0 0 0 0 0 0 0 0 0 0 0 0 0
0 0 0 -0 -0 -0 0 -0 0 0 0 0 0 0 0 0 0 0 0 0 0 0 0 0 0 0 0 0 0 0 0 0 0 0 0 0 0 0 0 0 0 0 0 0 0 0 0 0 0
0 0 0 0 0 0 0 0 0 0 0 0 0 0 0 0 0 0 0 0 0 0 0 0 0 0 0 0 0 0 0 0 0 0 0 0 0 0 0 0 0 0 0 0 0 0 0 0 0
0 0 0 0 0 0 0 0 0 0 0 0 0 0 0 0 0 0 0 0 0 0 0 0 0 0 0 0 0 0 0 0 0 0 0 0 0 0 0 0 0 0 0 0 0 0 0 0 0
0 0 0 0 0 0 0 0 0 0 -0 0 0 0 0 0 0 0 0 0 0 0 0 0 0 0 0 0 0 0 0 0 0 0 0 0 0 0 0 0 0 0 0 0 0 0 0 0 0
0 0 0 0 0 0 0 0 -0 0 0 0 0 0 0 0 0 0 0 0 0 0 0 0 0 0 0 0 0 0 0 0 0 0 0 0 0 0 0 0 0 0 0 0 0 0 0 0 0
Wind_Speed_500mb
8 9 3 5 5 8 18 14 12 15 10 14 21 24 25 34 11 13 36 29 34 39 33 27 28 32 24 20 18 18 19 20 20 21 21 21 21 21 21 21 21 21 22 22 23 24 25 25 25
7 10 8 11 8 13 16 20 11 15 25 28 19 15 16 13 13 40 40 30 34 41 33 30 32 31 27 23 21 22 23 23 23 22 21 20 19 19 19 20 20 22 22 22 23 24 24 24 25
11 10 15 7 10 22 18 17 17 33 34 28 11 27 18 10 28 38 39 30 35 33 29 36 36 33 29 21 20 21 22 22 22 21 20 19 18 18 19 19 19 19 20 22 24 24 24 24 23
15 15 17 11 19 33 34 13 39 25 19 19 38 21 20 20 29 30 52 34 36 40 32 38 35 32 27 21 18 19 20 21 20 18 18 17 17 17 17 18 20 21 23 24 24 25 25 26 26
23 21 12 16 26 26 27 10 42 24 23 22 33 16 20 17 26 51 51 40 39 34 33 38 35 33 28 21 16 15 16 17 17 16 16 16 16 16 16 18 18 19 20 22 23 24 25 26 27
19 31 17 26 29 31 19 18 27 28 40 21 27 26 11 34 46 51 51 44 43 37 37 36 35 34 29 21 15 14 15 15 15 14 14 15 16 17 19 19 19 21 22 23 23 23 24 26 27
27 18 27 28 33 31 15 16 20 25 30 16 52 11 23 43 43 50 48 42 40 32 37 36 35 35 27 20 13 14 14 14 13 13 14 15 17 17 16 18 21 22 22 24 24 25 26 26 26
37 18 38 35 30 28 21 31 33 33 10 37 19 17 19 56 48 50 48 38 32 35 28 30 36 31 24 20 15 15 14 14 13 13 13 14 15 17 19 21 22 23 23 23 23 24 25 22 24
38 22 25 36 39 23 37 20 36 18 33 25 11 25 40 65 54 53 52 46 41 36 32 25 20 21 22 19 17 13 13 11 11 12 14 14 16 15 16 19 20 19 19 19 20 20 21 22 19
19 16 29 35 28 27 24 38 25 17 37 26 35 43 64 67 63 63 57 49 46 43 43 44 31 21 13 12 14 12 12 11 10 11 11 9 7 8 16 16 14 16 15 16 17 20 22 25 19
39 30 35 55 52 46 28 37 44 23 16 39 58 66 75 66 67 66 56 59 44 41 33 36 34 30 21 21 17 13 12 14 12 8 9 6 4 5 5 6 13 18 17 16 16 15 17 20 19
39 42 50 66 69 18 8 50 45 39 10 48 59 67 72 61 54 50 45 49 44 45 45 47 45 38 34 28 18 15 13 12 9 5 4 2 3 7 11 5 13 17 15 13 13 18 23 20 18
40 37 57 64 45 18 24 22 15 17 35 54 56 64 64 58 47 44 43 39 41 39 42 48 45 35 30 19 16 21 21 14 5 4 3 2 2 5 12 11 9 10 8 13 16 13 12 15 16
14 45 51 64 37 38 16 21 31 13 45 59 68 62 54 55 51 50 52 46 38 37 32 38 30 24 28 30 35 28 16 11 12 9 5 5 7 9 3 4 5 8 13 14 11 11 12 14 14
30 23 38 44 43 26 24 10 5 44 45 56 53 57 61 58 54 52 45 41 39 41 39 31 31 32 41 40 31 22 20 16 13 10 5 8 7 3 2 2 9 14 11 9 11 13 16 17 16
11 24 13 35 42 29 29 30 21 39 46 45 52 57 57 56 55 56 55 48 46 44 46 47 46 46 39 32 30 23 19 18 14 10 7 5 2 8 1 7 11 9 9 10 12 13 16 17 18
6 5 23 33 52 24 28 16 26 42 39 42 43 48 56 54 51 51 48 46 44 41 43 45 47 42 38 32 25 24 22 19 16 17 12 2 3 2 6 4 6 7 9 13 16 18 21 22 22
13 10 16 26 34 31 33 13 30 44 45 42 43 41 50 51 50 49 48 48 45 44 42 41 43 40 38 34 30 27 21 20 18 15 6 3 4 3 5 4 6 9 13 16 19 21 24 26 26
13 8 12 13 27 34 33 21 31 38 41 43 42 41 43 46 45 43 44 43 44 42 41 42 41 40 35 34 35 28 28 25 22 13 6 4 4 7 3 5 9 13 15 19 22 23 23 21 22
21 8 9 3 13 19 27 20 29 32 33 47 51 47 49 47 41 41 39 37 41 36 39 45 46 41 42 38 37 38 31 28 19 10 9 9 8 3 4 8 12 16 19 20 20 21 24 25 25
27 26 12 7 5 6 19 10 30 21 26 35 41 47 49 53 46 41 39 39 36 37 39 47 52 51 49 47 47 40 28 21 17 16 14 11 5 2 7 11 14 16 18 20 22 22 22 23 22
23 25 19 11 4 3 12 9 23 23 23 23 33 42 55 47 40 39 41 40 37 37 37 41 47 48 50 47 41 34 27 19 21 19 15 8 2 3 8 12 15 18 19 20 21 21 20 19 19
18 16 31 11 11 4 9 6 9 28 22 31 40 42 45 53 41 42 41 39 39 37 35 37 38 43 46 47 38 26 21 21 20 16 10 6 1 5 9 11 15 17 18 18 18 18 18 19 19
6 19 21 20 7 7 16 7 6 21 33 26 33 52 54 55 54 49 42 42 45 44 37 35 36 42 44 36 31 22 20 20 18 14 10 5 1 5 9 12 14 16 16 15 15 15 17 18 19
7 4 5 7 6 5 27 18 12 5 13 34 40 55 60 64 60 56 47 49 48 43 45 36 29 36 35 31 30 27 25 22 16 13 6 3 2 5 9 12 14 15 14 13 15 16 17 19 20
13 11 3 9 11 10 15 14 8 5 23 31 60 55 60 60 59 58 59 56 53 54 48 39 30 27 30 32 30 26 21 20 13 8 5 5 2 6 9 12 12 12 13 14 14 16 18 19 20
5 17 3 2 3 5 3 5 9 12 4 8 43 54 55 56 60 61 55 49 53 50 48 42 50 47 41 32 29 25 24 14 12 11 8 6 3 6 9 12 13 13 14 15 15 17 19 21 23
6 4 5 5 3 4 5 5 7 13 18 20 27 45 50 54 58 60 54 57 56 62 57 53 51 51 41 29 27 23 20 17 14 11 7 5 4 8 11 13 14 15 16 18 20 21 22 24 27
5 6 8 6 7 4 5 6 7 9 33 40 35 53 66 66 59 57 63 52 58 49 60 63 58 49 38 35 30 28 20 17 15 11 7 5 7 9 11 13 16 18 20 21 23 23 26 28 31
3 12 12 5 6 4 4 3 8 10 8 20 41 44 46 62 69 74 66 64 58 56 56 57 48 45 41 38 32 25 21 18 15 11 8 8 9 11 15 17 20 21 23 24 25 26 28 31 34
Wind_Direction_500mb
187 165 155 268 252 231 242 241 81 108 105 66 62 68 95 40 24 118 131 176 168 159 152 140 143 151 149 137 127 122 120 115 106 99 97 93 88 84 79 73 67 64 57 49 42 38 35 33 33
167 236 195 265 233 236 245 231 162 104 105 113 92 137 57 85 88 137 135 166 171 158 150 138 135 136 134 117 117 120 117 115 112 108 103 96 90 83 74 66 57 50 45 41 39 36 33 30 29
244 226 238 208 233 244 233 174 153 108 135 141 109 63 63 94 116 132 147 158 150 145 153 140 139 137 133 117 105 113 116 118 116 110 102 94 86 77 68 61 54 49 42 40 39 34 31 30 29
300 250 264 236 227 233 263 169 124 135 146 167 116 90 82 134 145 148 146 156 134 150 160 151 149 146 139 127 115 122 123 122 114 104 96 87 77 67 59 50 46 41 37 39 34 31 27 25 23
278 269 239 221 240 249 243 24 133 147 153 165 131 102 99 126 145 142 149 152 137 166 157 152 152 155 147 139 121 113 116 114 108 101 90 78 68 62 56 53 51 46 39 35 33 30 28 25 22
288 249 253 237 218 247 243 157 159 169 166 143 94 108 115 139 143 148 146 151 156 159 169 158 155 155 158 139 119 122 122 115 109 95 82 75 72 63 54 47 40 37 35 34 32 30 27 24 21
259 275 251 256 239 222 203 205 212 193 128 155 140 90 142 147 154 149 150 162 163 167 165 159 154 157 158 141 138 135 120 110 96 92 87 79 70 60 49 40 36 35 33 32 31 29 28 27 27
276 276 265 249 251 232 194 188 217 201 78 122 120 144 164 158 158 151 151 157 161 163 164 162 161 160 165 160 158 145 131 119 109 94 81 73 61 45 40 37 38 36 35 32 29 28 25 26 25
270 271 262 246 247 245 176 169 200 121 119 93 64 170 177 151 157 156 155 157 156 152 154 164 179 180 186 184 167 157 146 135 119 103 76 55 47 33 21 31 23 20 24 24 20 21 20 16 14
233 263 256 258 241 251 203 171 152 143 119 107 102 125 148 145 162 161 159 162 164 163 177 178 151 167 185 173 170 160 150 136 95 103 81 71 80 43 26 13 15 17 19 14 11 6 4 353 357
240 242 263 277 265 245 220 189 171 186 176 158 152 146 148 165 168 165 161 161 165 174 179 157 151 167 166 152 164 177 137 119 111 104 101 89 67 30 30 328 8 342 348 345 349 351 356 3 12
261 239 249 263 277 250 261 182 177 192 148 171 163 160 155 161 160 163 171 167 164 170 159 165 167 178 173 199 166 148 141 151 164 137 124 103 7 321 314 356 330 326 5 22 19 9 0 359 359
267 270 246 259 269 279 242 128 116 79 121 149 154 157 158 157 164 162 172 161 176 178 173 174 177 177 172 126 140 173 184 188 188 183 218 273 290 310 305 327 3 30 16 359 357 343 350 20 37
299 312 292 263 258 272 245 129 158 137 136 141 149 155 163 162 164 164 163 158 179 169 172 167 157 159 158 172 189 189 190 194 216 225 219 269 306 303 16 343 3 8 338 330 342 9 38 27 20
244 290 303 276 245 209 201 143 238 151 149 146 152 154 166 166 162 159 156 163 162 165 164 165 166 175 187 188 189 192 208 218 221 218 233 318 316 207 305 1 334 336 347 21 53 22 9 360 4
236 245 253 258 245 198 170 206 143 159 155 143 145 158 165 163 173 173 171 172 173 176 176 170 175 189 195 191 191 197 213 218 214 224 223 297 254 164 314 329 350 30 44 20 5 358 349 348 350
224 236 246 273 236 184 188 180 160 165 169 154 153 160 168 167 172 177 182 177 179 178 181 180 190 199 194 197 199 204 211 215 239 182 179 204 224 276 312 6 79 39 7 354 349 348 344 345 349
168 194 243 257 224 199 198 195 154 173 170 164 162 163 169 168 173 178 182 181 184 182 188 187 192 198 201 205 205 206 219 225 174 168 154 220 274 286 115 74 30 1 353 351 347 345 346 347 350
204 164 253 316 332 341 200 169 167 180 176 167 168 167 167 172 175 177 180 181 187 193 191 193 195 201 204 204 202 198 164 169 169 166 179 198 161 143 83 358 352 346 343 348 349 346 343 347 354
226 152 217 246 6 347 281 200 171 179 189 178 170 169 163 176 175 179 182 184 190 195 199 197 202 202 204 202 198 184 180 175 167 165 176 157 146 121 1 347 345 349 352 352 352 354 355 359 6
235 217 202 160 356 233 318 268 162 185 176 179 181 172 171 179 175 177 178 189 189 196 194 196 195 199 196 194 186 172 174 169 169 167 159 156 155 358 344 346 347 350 352 353 356 3 2 6 7
262 212 158 149 86 230 68 318 237 175 184 180 182 171 162 168 178 183 182 188 187 183 185 190 191 189 186 189 171 163 171 182 167 159 161 168 191 343 347 350 350 351 356 0 357 359 7 9 14
239 278 202 146 141 140 137 250 266 175 199 187 177 169 160 155 181 180 183 182 175 176 178 179 187 181 175 181 171 170 164 165 158 164 177 186 196 358 350 349 352 353 355 358 3 2 10 16 14
166 214 172 158 150 215 158 168 262 191 221 190 178 166 166 162 183 180 177 175 169 163 169 173 180 186 170 170 167 160 161 160 177 187 194 206 0 348 349 356 351 349 350 352 359 3 6 15 16
167 254 199 188 183 227 156 156 262 242 289 189 182 166 166 185 185 170 177 173 167 162 169 165 173 168 159 159 163 165 169 180 185 194 203 237 288 355 349 348 346 339 337 344 358 3 7 6 6
213 215 282 190 177 152 164 180 196 313 304 246 177 168 158 177 179 171 175 180 165 168 172 169 187 204 164 171 166 175 184 193 182 196 217 236 303 351 346 336 331 332 333 343 354 355 356 355 352
187 208 357 135 235 67 152 217 246 125 299 162 155 154 160 174 181 182 185 179 168 172 170 176 181 180 172 168 185 186 187 181 199 203 196 237 311 338 335 329 326 323 327 336 341 347 342 339 339
234 346 279 322 42 104 238 222 166 174 174 164 161 164 161 165 178 183 182 175 166 180 169 173 170 169 177 187 199 188 187 193 196 200 196 243 316 329 329 323 319 321 327 331 333 333 330 328 330
184 265 228 141 263 177 156 236 5 195 184 185 182 174 169 177 173 179 172 178 185 186 174 176 175 174 182 194 188 192 188 190 198 202 217 259 299 313 316 320 324 323 322 322 321 320 318 322 324
278 236 203 164 246 338 82 324 1 1 359 164 171 176 176 179 175 184 187 190 187 182 179 178 181 186 186 185 189 186 187 195 206 214 236 271 294 319 328 326 322 317 314 313 311 312 314 317 319
Wind_Speed_850mb
8 9 3 5 5 8 18 14 12 15 10 14 21 24 25 34 11 13 36 29 34 39 33 27 28 32 24 20 18 18 19 20 20 21 21 21 21 21 21 21 21 21 22 22 23 24 25 25 25
7 10 8 11 8 13 16 20 11 15 25 28 19 15 16 13 13 40 40 30 34 41 33 30 32 31 27 23 21 22 23 23 23 22 21 20 19 19 19 20 20 22 22 22 23 24 24 24 25
11 10 15 7 10 22 18 17 17 33 34 28 11 27 18 10 28 38 39 30 35 33 29 36 36 33 29 21 20 21 22 22 22 21 20 19 18 18 19 19 19 19 20 22 24 24 24 24 23
15 15 17 11 19 33 34 13 39 25 19 19 38 21 20 20 29 30 52 34 36 40 32 38 35 32 27 21 18 19 20 21 20 18 18 17 17 17 17 18 20 21 23 24 24 25 25 26 26
23 21 12 16 26 26 27 10 42 24 23 22 33 16 20 17 26 51 51 40 39 34 33 38 35 33 28 21 16 15 16 17 17 16 16 16 16 16 16 18 18 19 20 22 23 24 25 26 27
19 31 17 26 29 31 19 18 27 28 40 21 27 26 11 34 46 51 51 44 43 37 37 36 35 34 29 21 15 14 15 15 15 14 14 15 16 17 19 19 19 21 22 23 23 23 24 26 27
27 18 27 28 33 31 15 16 20 25 30 16 52 11 23 43 43 50 48 42 40 32 37 36 35 35 27 20 13 14 14 14 13 13 14 15 17 17 16 18 21 22 22 24 24 25 26 26 26
37 18 38 35 30 28 21 31 33 33 10 37 19 17 19 56 48 50 48 38 32 35 28 30 36 31 24 20 15 15 14 14 13 13 13 14 15 17 19 21 22 23 23 23 23 24 25 22 24
38 22 25 36 39 23 37 20 36 18 33 25 11 25 40 65 54 53 52 46 41 36 32 25 20 21 22 19 17 13 13 11 11 12 14 14 16 15 16 19 20 19 19 19 20 20 21 22 19
19 16 29 35 28 27 24 38 25 17 37 26 35 43 64 67 63 63 57 49 46 43 43 44 31 21 13 12 14 12 12 11 10 11 11 9 7 8 16 16 14 16 15 16 17 20 22 25 19
39 30 35 55 52 46 28 37 44 23 16 39 58 66 75 66 67 66 56 59 44 41 33 36 34 30 21 21 17 13 12 14 12 8 9 6 4 5 5 6 13 18 17 16 16 15 17 20 19
39 42 50 66 69 18 8 50 45 39 10 48 59 67 72 61 54 50 45 49 44 45 45 47 45 38 34 28 18 15 13 12 9 5 4 2 3 7 11 5 13 17 15 13 13 18 23 20 18
40 37 57 64 45 18 24 22 15 17 35 54 56 64 64 58 47 44 43 39 41 39 42 48 45 35 30 19 16 21 21 14 5 4 3 2 2 5 12 11 9 10 8 13 16 13 12 15 16
14 45 51 64 37 38 16 21 31 13 45 59 68 62 54 55 51 50 52 46 38 37 32 38 30 24 28 30 35 28 16 11 12 9 5 5 7 9 3 4 5 8 13 14 11 11 12 14 14
30 23 38 44 43 26 24 10 5 44 45 56 53 57 61 58 54 52 45 41 39 41 39 31 31 32 41 40 31 22 20 16 13 10 5 8 7 3 2 2 9 14 11 9 11 13 16 17 16
11 24 13 35 42 29 29 30 21 39 46 45 52 57 57 56 55 56 55 48 46 44 46 47 46 46 39 32 30 23 19 18 14 10 7 5 2 8 1 7 11 9 9 10 12 13 16 17 18
6 5 23 33 52 24 28 16 26 42 39 42 43 48 56 54 51 51 48 46 44 41 43 45 47 42 38 32 25 24 22 19 16 17 12 2 3 2 6 4 6 7 9 13 16 18 21 22 22
13 10 16 26 34 31 33 13 30 44 45 42 43 41 50 51 50 49 48 48 45 44 42 41 43 40 38 34 30 27 21 20 18 15 6 3 4 3 5 4 6 9 13 16 19 21 24 26 26
13 8 12 13 27 34 33 21 31 38 41 43 42 41 43 46 45 43 44 43 44 42 41 42 41 40 35 34 35 28 28 25 22 13 6 4 4 7 3 5 9 13 15 19 22 23 23 21 22
21 8 9 3 13 19 27 20 29 32 33 47 51 47 49 47 41 41 39 37 41 36 39 45 46 41 42 38 37 38 31 28 19 10 9 9 8 3 4 8 12 16 19 20 20 21 24 25 25
27 26 12 7 5 6 19 10 30 21 26 35 41 47 49 53 46 41 39 39 36 37 39 47 52 51 49 47 47 40 28 21 17 16 14 11 5 2 7 11 14 16 18 20 22 22 22 23 22
23 25 19 11 4 3 12 9 23 23 23 23 33 42 55 47 40 39 41 40 37 37 37 41 47 48 50 47 41 34 27 19 21 19 15 8 2 3 8 12 15 18 19 20 21 21 20 19 19
18 16 31 11 11 4 9 6 9 28 22 31 40 42 45 53 41 42 41 39 39 37 35 37 38 43 46 47 38 26 21 21 20 16 10 6 1 5 9 11 15 17 18 18 18 18 18 19 19
6 19 21 20 7 7 16 7 6 21 33 26 33 52 54 55 54 49 42 42 45 44 37 35 36 42 44 36 31 22 20 20 18 14 10 5 1 5 9 12 14 16 16 15 15 15 17 18 19
7 4 5 7 6 5 27 18 12 5 13 34 40 55 60 64 60 56 47 49 48 43 45 36 29 36 35 31 30 27 25 22 16 13 6 3 2 5 9 12 14 15 14 13 15 16 17 19 20
13 11 3 9 11 10 15 14 8 5 23 31 60 55 60 60 59 58 59 56 53 54 48 39 30 27 30 32 30 26 21 20 13 8 5 5 2 6 9 12 12 12 13 14 14 16 18 19 20
5 17 3 2 3 5 3 5 9 12 4 8 43 54 55 56 60 61 55 49 53 50 48 42 50 47 41 32 29 25 24 14 12 11 8 6 3 6 9 12 13 13 14 15 15 17 19 21 23
6 4 5 5 3 4 5 5 7 13 18 20 27 45 50 54 58 60 54 57 56 62 57 53 51 51 41 29 27 23 20 17 14 11 7 5 4 8 11 13 14 15 16 18 20 21 22 24 27
5 6 8 6 7 4 5 6 7 9 33 40 35 53 66 66 59 57 63 52 58 49 60 63 58 49 38 35 30 28 20 17 15 11 7 5 7 9 11 13 16 18 20 21 23 23 26 28 31
3 12 12 5 6 4 4 3 8 10 8 20 41 44 46 62 69 74 66 64 58 56 56 57 48 45 41 38 32 25 21 18 15 11 8 8 9 11 15 17 20 21 23 24 25 26 28 31 34
Wind_Direction_850mb
187 165 155 268 252 231 242 241 81 108 105 66 62 68 95 40 24 118 131 176 168 159 152 140 143 151 149 137 127 122 120 115 106 99 97 93 88 84 79 73 67 64 57 49 42 38 35 33 33
167 236 195 265 233 236 245 231 162 104 105 113 92 137 57 85 88 137 135 166 171 158 150 138 135 136 134 117 117 120 117 115 112 108 103 96 90 83 74 66 57 50 45 41 39 36 33 30 29
244 226 238 208 233 244 233 174 153 108 135 141 109 63 63 94 116 132 147 158 150 145 153 140 139 137 133 117 105 113 116 118 116 110 102 94 86 77 68 61 54 49 42 40 39 34 31 30 29
300 250 264 236 227 233 263 169 124 135 146 167 116 90 82 134 145 148 146 156 134 150 160 151 149 146 139 127 115 122 123 122 114 104 96 87 77 67 59 50 46 41 37 39 34 31 27 25 23
278 269 239 221 240 249 243 24 133 147 153 165 131 102 99 126 145 142 149 152 137 166 157 152 152 155 147 139 121 113 116 114 108 101 90 78 68 62 56 53 51 46 39 35 33 30 28 25 22
288 249 253 237 218 247 243 157 159 169 166 143 94 108 115 139 143 148 146 151 156 159 169 158 155 155 158 139 119 122 122 115 109 95 82 75 72 63 54 47 40 37 35 34 32 30 27 24 21
259 275 251 256 239 222 203 205 212 193 128 155 140 90 142 147 154 149 150 162 163 167 165 159 154 157 158 141 138 135 120 110 96 92 87 79 70 60 49 40 36 35 33 32 31 29 28 27 27
276 276 265 249 251 232 194 188 217 201 78 122 120 144 164 158 158 151 151 157 161 163 164 162 161 160 165 160 158 145 131 119 109 94 81 73 61 45 40 37 38 36 35 32 29 28 25 26 25
270 271 262 246 247 245 176 169 200 121 119 93 64 170 177 151 157 156 155 157 156 152 154 164 179 180 186 184 167 157 146 135 119 103 76 55 47 33 21 31 23 20 24 24 20 21 20 16 14
233 263 256 258 241 251 203 171 152 143 119 107 102 125 148 145 162 161 159 162 164 163 177 178 151 167 185 173 170 160 150 136 95 103 81 71 80 43 26 13 15 17 19 14 11 6 4 353 357
240 242 263 277 265 245 220 189 171 186 176 158 152 146 148 165 168 165 161 161 165 174 179 157 151 167 166 152 164 177 137 119 111 104 101 89 67 30 30 328 8 342 348 345 349 351 356 3 12
261 239 249 263 277 250 261 182 177 192 148 171 163 160 155 161 160 163 171 167 164 170 159 165 167 178 173 199 166 148 141 151 164 137 124 103 7 321 314 356 330 326 5 22 19 9 0 359 359
267 270 246 259 269 279 242 128 116 79 121 149 154 157 158 157 164 162 172 161 176 178 173 174 177 177 172 126 140 173 184 188 188 183 218 273 290 310 305 327 3 30 16 359 357 343 350 20 37
299 312 292 263 258 272 245 129 158 137 136 141 149 155 163 162 164 164 163 158 179 169 172 167 157 159 158 172 189 189 190 194 216 225 219 269 306 303 16 343 3 8 338 330 342 9 38 27 20
244 290 303 276 245 209 201 143 238 151 149 146 152 154 166 166 162 159 156 163 162 165 164 165 166 175 187 188 189 192 208 218 221 218 233 318 316 207 305 1 334 336 347 21 53 22 9 360 4
236 245 253 258 245 198 170 206 143 159 155 143 145 158 165 163 173 173 171 172 173 176 176 170 175 189 195 191 191 197 213 218 214 224 223 297 254 164 314 329 350 30 44 20 5 358 349 348 350
224 236 246 273 236 184 188 180 160 165 169 154 153 160 168 167 172 177 182 177 179 178 181 180 190 199 194 197 199 204 211 215 239 182 179 204 224 276 312 6 79 39 7 354 349 348 344 345 349
168 194 243 257 224 199 198 195 154 173 170 164 162 163 169 168 173 178 182 181 184 182 188 187 192 198 201 205 205 206 219 225 174 168 154 220 274 286 115 74 30 1 353 351 347 345 346 347 350
204 164 253 316 332 341 200 169 167 180 176 167 168 167 167 172 175 177 180 181 187 193 191 193 195 201 204 204 202 198 164 169 169 166 179 198 161 143 83 358 352 346 343 348 349 346 343 347 354
226 152 217 246 6 347 281 200 171 179 189 178 170 169 163 176 175 179 182 184 190 195 199 197 202 202 204 202 198 184 180 175 167 165 176 157 146 121 1 347 345 349 352 352 352 354 355 359 6
235 217 202 160 356 233 318 268 162 185 176 179 181 172 171 179 175 177 178 189 189 196 194 196 195 199 196 194 186 172 174 169 169 167 159 156 155 358 344 346 347 350 352 353 356 3 2 6 7
262 212 158 149 86 230 68 318 237 175 184 180 182 171 162 168 178 183 182 188 187 183 185 190 191 189 186 189 171 163 171 182 167 159 161 168 191 343 347 350 350 351 356 0 357 359 7 9 14
239 278 202 146 141 140 137 250 266 175 199 187 177 169 160 155 181 180 183 182 175 176 178 179 187 181 175 181 171 170 164 165 158 164 177 186 196 358 350 349 352 353 355 358 3 2 10 16 14
166 214 172 158 150 215 158 168 262 191 221 190 178 166 166 162 183 180 177 175 169 163 169 173 180 186 170 170 167 160 161 160 177 187 194 206 0 348 349 356 351 349 350 352 359 3 6 15 16
167 254 199 188 183 227 156 156 262 242 289 189 182 166 166 185 185 170 177 173 167 162 169 165 173 168 159 159 163 165 169 180 185 194 203 237 288 355 349 348 346 339 337 344 358 3 7 6 6
213 215 282 190 177 152 164 180 196 313 304 246 177 168 158 177 179 171 175 180 165 168 172 169 187 204 164 171 166 175 184 193 182 196 217 236 303 351 346 336 331 332 333 343 354 355 356 355 352
187 208 357 135 235 67 152 217 246 125 299 162 155 154 160 174 181 182 185 179 168 172 170 176 181 180 172 168 185 186 187 181 199 203 196 237 311 338 335 329 326 323 327 336 341 347 342 339 339
234 346 279 322 42 104 238 222 166 174 174 164 161 164 161 165 178 183 182 175 166 180 169 173 170 169 177 187 199 188 187 193 196 200 196 243 316 329 329 323 319 321 327 331 333 333 330 328 330
184 265 228 141 263 177 156 236 5 195 184 185 182 174 169 177 173 179 172 178 185 186 174 176 175 174 182 194 188 192 188 190 198 202 217 259 299 313 316 320 324 323 322 322 321 320 318 322 324
278 236 203 164 246 338 82 324 1 1 359 164 171 176 176 179 175 184 187 190 187 182 179 178 181 186 186 185 189 186 187 195 206 214 236 271 294 319 328 326 322 317 314 313 311 312 314 317 319